THY2205 LTBS-LCLK

Flight info

Callsign THY2205
Flight time 0h 54m
Altitude 31000
Route BIRPU UN127 EXELA UM601 EVENO M601 BONEK
Aircraft A321/M-SDE3FGHIRWY/LB1

Departure

Time 2026-04-19 05:19
Airport Dalaman International Airport (LTBS)

Arrival

Time 2026-04-19 06:14
Airport Larnaca International Airport (LCLK)
Time Latitude Longitude Altitude Speed Heading
2026-04-19 04:56 36.71664 28.78852 24 ft 0 kts 285°
2026-04-19 05:10 36.71664 28.78853 24 ft 0 kts 285°
2026-04-19 05:11 36.71664 28.78855 24 ft 1 kts 285°
2026-04-19 05:12 36.71660 28.78873 24 ft 2 kts 284°
2026-04-19 05:12 36.71656 28.78891 24 ft 2 kts 285°
2026-04-19 05:12 36.71652 28.78909 24 ft 2 kts 284°
2026-04-19 05:12 36.71650 28.78927 24 ft 2 kts 249°
2026-04-19 05:13 36.71659 28.78940 24 ft 2 kts 204°
2026-04-19 05:13 36.71673 28.78944 24 ft 1 kts 189°
2026-04-19 05:13 36.71677 28.78945 24 ft 0 kts 192°
2026-04-19 05:15 36.71674 28.78944 24 ft 3 kts 193°
2026-04-19 05:15 36.71579 28.78911 23 ft 19 kts 196°
2026-04-19 05:15 36.71444 28.78864 22 ft 17 kts 195°
2026-04-19 05:15 36.71375 28.78849 21 ft 9 kts 163°
2026-04-19 05:16 36.71344 28.78925 21 ft 10 kts 104°
2026-04-19 05:16 36.71320 28.79016 21 ft 10 kts 136°
2026-04-19 05:16 36.71218 28.79001 20 ft 25 kts 195°
2026-04-19 05:16 36.71025 28.78935 19 ft 28 kts 195°
2026-04-19 05:17 36.70837 28.78871 18 ft 27 kts 195°
2026-04-19 05:17 36.70652 28.78809 17 ft 26 kts 195°
2026-04-19 05:17 36.70474 28.78747 17 ft 26 kts 196°
2026-04-19 05:17 36.70300 28.78689 17 ft 25 kts 195°
2026-04-19 05:18 36.70138 28.78634 16 ft 17 kts 195°
2026-04-19 05:18 36.70061 28.78666 16 ft 12 kts 115°
2026-04-19 05:18 36.70056 28.78775 16 ft 12 kts 74°
2026-04-19 05:18 36.70128 28.78845 16 ft 20 kts 17°
2026-04-19 05:19 36.70470 28.78963 16 ft 84 kts 14°
2026-04-19 05:19 36.71243 28.79224 20 ft 142 kts 15°
2026-04-19 05:19 36.72298 28.79594 303 ft 164 kts 14°
2026-04-19 05:19 36.73369 28.80043 922 ft 166 kts 24°
2026-04-19 05:20 36.74382 28.80786 1323 ft 177 kts 34°
2026-04-19 05:20 36.75452 28.81708 1644 ft 193 kts 32°
2026-04-19 05:20 36.76635 28.82601 1949 ft 210 kts 31°
2026-04-19 05:20 36.77964 28.83577 2237 ft 230 kts 30°
2026-04-19 05:21 36.79395 28.84615 2657 ft 246 kts 30°
2026-04-19 05:21 36.80896 28.85697 3321 ft 251 kts 30°
2026-04-19 05:21 36.82392 28.86801 4068 ft 252 kts 35°
2026-04-19 05:21 36.83550 28.88431 4745 ft 257 kts 63°
2026-04-19 05:22 36.83949 28.90601 5444 ft 263 kts 89°
2026-04-19 05:22 36.83593 28.92840 6126 ft 269 kts 103°
2026-04-19 05:22 36.83069 28.95088 6786 ft 272 kts 103°
2026-04-19 05:22 36.82555 28.97339 7407 ft 276 kts 103°
2026-04-19 05:23 36.82032 28.99674 8035 ft 280 kts 103°
2026-04-19 05:23 36.81506 29.02033 8648 ft 284 kts 104°
2026-04-19 05:23 36.80975 29.04406 9231 ft 289 kts 104°
2026-04-19 05:23 36.80361 29.06777 9804 ft 294 kts 115°
2026-04-19 05:24 36.79076 29.08775 10326 ft 300 kts 142°
2026-04-19 05:24 36.77879 29.09657 10527 ft 308 kts 159°
2026-04-19 05:24 36.74544 29.10213 10949 ft 328 kts 179°
2026-04-19 05:24 36.72196 29.10334 11212 ft 342 kts 179°
2026-04-19 05:25 36.69763 29.10479 11474 ft 355 kts 178°
2026-04-19 05:25 36.67268 29.10649 11916 ft 362 kts 178°
2026-04-19 05:25 36.64749 29.10835 12467 ft 365 kts 179°
2026-04-19 05:25 36.62211 29.11027 13010 ft 367 kts 179°
2026-04-19 05:26 36.59647 29.11221 13534 ft 371 kts 179°
2026-04-19 05:26 36.57069 29.11416 14036 ft 374 kts 179°
2026-04-19 05:26 36.54474 29.11623 14541 ft 378 kts 178°
2026-04-19 05:26 36.51857 29.11990 15056 ft 382 kts 175°
2026-04-19 05:27 36.49218 29.12587 15561 ft 386 kts 171°
2026-04-19 05:27 36.46582 29.13315 16061 ft 389 kts 170°
2026-04-19 05:27 36.43949 29.14060 16553 ft 392 kts 170°
2026-04-19 05:27 36.41289 29.14811 17037 ft 394 kts 171°
2026-04-19 05:28 36.38609 29.15561 17522 ft 397 kts 171°
2026-04-19 05:28 36.35902 29.16313 17993 ft 399 kts 171°
2026-04-19 05:28 36.33242 29.17247 18455 ft 405 kts 162°
2026-04-19 05:28 36.30701 29.18808 18901 ft 411 kts 151°
2026-04-19 05:29 36.28389 29.20937 19368 ft 416 kts 143°
2026-04-19 05:29 36.26170 29.23283 19808 ft 418 kts 142°
2026-04-19 05:29 36.23991 29.25635 20231 ft 421 kts 142°
2026-04-19 05:29 36.21773 29.28003 20646 ft 423 kts 142°
2026-04-19 05:30 36.19538 29.30362 21039 ft 425 kts 143°
2026-04-19 05:30 36.17260 29.32736 21429 ft 427 kts 143°
2026-04-19 05:30 36.14991 29.35047 21798 ft 429 kts 144°
2026-04-19 05:30 36.12657 29.37410 22173 ft 431 kts 144°
2026-04-19 05:31 36.10342 29.39753 22549 ft 433 kts 144°
2026-04-19 05:31 36.08030 29.42097 22916 ft 435 kts 144°
2026-04-19 05:31 36.05660 29.44503 23293 ft 436 kts 144°
2026-04-19 05:31 36.03331 29.46864 23635 ft 438 kts 144°
2026-04-19 05:32 36.00975 29.49250 23982 ft 440 kts 144°
2026-04-19 05:32 35.98602 29.51659 24345 ft 442 kts 143°
2026-04-19 05:32 35.96455 29.54409 24650 ft 450 kts 131°
2026-04-19 05:32 35.94787 29.57695 24957 ft 458 kts 119°
2026-04-19 05:33 35.93626 29.61354 25261 ft 462 kts 111°
2026-04-19 05:33 35.92638 29.65092 25558 ft 465 kts 110°
2026-04-19 05:33 35.91653 29.68923 25820 ft 467 kts 110°
2026-04-19 05:33 35.90664 29.72734 26076 ft 469 kts 111°
2026-04-19 05:34 35.89652 29.76565 26353 ft 470 kts 111°
2026-04-19 05:34 35.88645 29.80336 26631 ft 471 kts 111°
2026-04-19 05:34 35.87613 29.84173 26749 ft 471 kts 111°
2026-04-19 05:34 35.86579 29.87995 26753 ft 471 kts 111°
2026-04-19 05:35 35.85548 29.91793 26756 ft 470 kts 111°
2026-04-19 05:35 35.84512 29.95606 26754 ft 470 kts 111°
2026-04-19 05:35 35.83466 29.99447 26756 ft 470 kts 111°
2026-04-19 05:35 35.82464 30.03260 26754 ft 470 kts 110°
2026-04-19 05:36 35.81503 30.07071 26753 ft 470 kts 110°
2026-04-19 05:36 35.80535 30.10951 26758 ft 470 kts 110°
2026-04-19 05:36 35.79587 30.14751 26759 ft 470 kts 110°
2026-04-19 05:36 35.78627 30.18579 26753 ft 470 kts 110°
2026-04-19 05:37 35.77653 30.22451 26761 ft 470 kts 110°
2026-04-19 05:37 35.76687 30.26276 26756 ft 470 kts 110°
2026-04-19 05:37 35.75716 30.30111 26758 ft 470 kts 110°
2026-04-19 05:37 35.74744 30.33947 26756 ft 470 kts 110°
2026-04-19 05:38 35.73778 30.37750 26758 ft 469 kts 110°
2026-04-19 05:38 35.72797 30.41603 26753 ft 469 kts 110°
2026-04-19 05:38 35.71832 30.45388 26755 ft 469 kts 110°
2026-04-19 05:38 35.70862 30.49186 26757 ft 468 kts 110°
2026-04-19 05:39 35.69883 30.53017 26762 ft 468 kts 110°
2026-04-19 05:39 35.68908 30.56824 26763 ft 468 kts 110°
2026-04-19 05:39 35.67938 30.60608 26768 ft 467 kts 110°
2026-04-19 05:39 35.66957 30.64420 26773 ft 467 kts 110°
2026-04-19 05:40 35.65982 30.68203 26770 ft 467 kts 110°
2026-04-19 05:40 35.65000 30.72014 26770 ft 467 kts 110°
2026-04-19 05:40 35.64019 30.75818 26770 ft 466 kts 110°
2026-04-19 05:40 35.63045 30.79591 26771 ft 466 kts 110°
2026-04-19 05:41 35.62071 30.83359 26771 ft 466 kts 110°
2026-04-19 05:41 35.61090 30.87168 26770 ft 467 kts 110°
2026-04-19 05:41 35.60128 30.90961 26769 ft 467 kts 110°
2026-04-19 05:41 35.59168 30.94761 26767 ft 466 kts 110°
2026-04-19 05:42 35.58214 30.98537 26769 ft 466 kts 110°
2026-04-19 05:42 35.57258 31.02319 26775 ft 466 kts 110°
2026-04-19 05:42 35.56294 31.06124 26767 ft 467 kts 110°
2026-04-19 05:42 35.55331 31.09915 26772 ft 467 kts 110°
2026-04-19 05:43 35.54358 31.13736 26771 ft 466 kts 110°
2026-04-19 05:43 35.53395 31.17523 26769 ft 466 kts 110°
2026-04-19 05:43 35.52434 31.21288 26773 ft 466 kts 110°
2026-04-19 05:43 35.51472 31.25050 26770 ft 466 kts 110°
2026-04-19 05:44 35.50501 31.28846 26771 ft 465 kts 110°
2026-04-19 05:44 35.49535 31.32616 26770 ft 465 kts 110°
2026-04-19 05:44 35.48557 31.36429 26768 ft 465 kts 110°
2026-04-19 05:44 35.47596 31.40163 26769 ft 465 kts 110°
2026-04-19 05:45 35.46627 31.43928 26771 ft 465 kts 110°
2026-04-19 05:45 35.45653 31.47706 26770 ft 465 kts 110°
2026-04-19 05:45 35.44679 31.51479 26772 ft 465 kts 110°
2026-04-19 05:45 35.43701 31.55265 26769 ft 466 kts 110°
2026-04-19 05:46 35.42730 31.59019 26770 ft 466 kts 110°
2026-04-19 05:46 35.41744 31.62818 26769 ft 466 kts 110°
2026-04-19 05:46 35.40768 31.66578 26768 ft 466 kts 110°
2026-04-19 05:46 35.39784 31.70367 26770 ft 466 kts 110°
2026-04-19 05:47 35.38798 31.74156 26768 ft 466 kts 110°
2026-04-19 05:47 35.37819 31.77914 26769 ft 466 kts 110°
2026-04-19 05:47 35.36836 31.81681 26770 ft 465 kts 110°
2026-04-19 05:47 35.35860 31.85411 26771 ft 465 kts 110°
2026-04-19 05:48 35.34868 31.89202 26773 ft 465 kts 110°
2026-04-19 05:48 35.33879 31.92975 26774 ft 465 kts 110°
2026-04-19 05:48 35.32899 31.96709 26777 ft 465 kts 110°
2026-04-19 05:48 35.31912 32.00468 26779 ft 465 kts 110°
2026-04-19 05:49 35.30923 32.04222 26783 ft 465 kts 110°
2026-04-19 05:49 35.29924 32.08016 26783 ft 465 kts 110°
2026-04-19 05:49 35.28948 32.11738 26788 ft 464 kts 110°
2026-04-19 05:49 35.27962 32.15512 26789 ft 464 kts 110°
2026-04-19 05:50 35.26988 32.19229 26787 ft 464 kts 110°
2026-04-19 05:50 35.26008 32.22975 26789 ft 464 kts 110°
2026-04-19 05:50 35.25024 32.26727 26789 ft 464 kts 110°
2026-04-19 05:50 35.24032 32.30502 26786 ft 464 kts 110°
2026-04-19 05:51 35.23049 32.34231 26517 ft 463 kts 110°
2026-04-19 05:51 35.22063 32.37975 26039 ft 461 kts 110°
2026-04-19 05:51 35.21088 32.41666 25430 ft 458 kts 110°
2026-04-19 05:51 35.20118 32.45337 24808 ft 455 kts 110°
2026-04-19 05:52 35.19158 32.48968 24315 ft 449 kts 110°
2026-04-19 05:52 35.18198 32.52593 23797 ft 445 kts 110°
2026-04-19 05:52 35.17258 32.56139 23292 ft 441 kts 110°
2026-04-19 05:52 35.16322 32.59668 22779 ft 437 kts 110°
2026-04-19 05:53 35.15387 32.63180 22303 ft 433 kts 109°
2026-04-19 05:53 35.14454 32.66684 21810 ft 429 kts 110°
2026-04-19 05:53 35.13542 32.70103 21336 ft 425 kts 110°
2026-04-19 05:53 35.12631 32.73519 20859 ft 422 kts 110°
2026-04-19 05:54 35.11731 32.76888 20379 ft 419 kts 110°
2026-04-19 05:54 35.10829 32.80258 19907 ft 416 kts 110°
2026-04-19 05:54 35.09941 32.83577 19440 ft 413 kts 110°
2026-04-19 05:54 35.09044 32.86921 18956 ft 410 kts 110°
2026-04-19 05:55 35.08187 32.90109 18481 ft 408 kts 110°
2026-04-19 05:55 35.07307 32.93380 18005 ft 406 kts 110°
2026-04-19 05:55 35.06399 32.96625 17522 ft 403 kts 111°
2026-04-19 05:55 35.05484 32.99798 17048 ft 401 kts 111°
2026-04-19 05:56 35.04557 33.03004 16557 ft 399 kts 111°
2026-04-19 05:56 35.03631 33.06206 16075 ft 397 kts 111°
2026-04-19 05:56 35.02730 33.09330 15595 ft 395 kts 111°
2026-04-19 05:56 35.01822 33.12482 15134 ft 392 kts 111°
2026-04-19 05:57 35.00923 33.15604 14651 ft 389 kts 111°
2026-04-19 05:57 35.00035 33.18681 14161 ft 388 kts 111°
2026-04-19 05:57 34.99146 33.21761 13688 ft 385 kts 111°
2026-04-19 05:57 34.98257 33.24837 13205 ft 383 kts 111°
2026-04-19 05:58 34.97377 33.27875 12727 ft 381 kts 111°
2026-04-19 05:58 34.96498 33.30906 12251 ft 379 kts 111°
2026-04-19 05:58 34.95618 33.33940 11762 ft 377 kts 111°
2026-04-19 05:58 34.94751 33.36923 11280 ft 375 kts 111°
2026-04-19 05:59 34.93879 33.39914 10810 ft 372 kts 111°
2026-04-19 05:59 34.93032 33.42822 10569 ft 361 kts 111°
2026-04-19 05:59 34.92212 33.45641 10425 ft 342 kts 111°
2026-04-19 05:59 34.91433 33.48322 10276 ft 324 kts 111°
2026-04-19 06:00 34.90706 33.50825 10133 ft 307 kts 111°
2026-04-19 06:00 34.90001 33.53239 10000 ft 296 kts 111°
2026-04-19 06:00 34.89317 33.55578 9650 ft 295 kts 111°
2026-04-19 06:00 34.88625 33.57936 9285 ft 295 kts 111°
2026-04-19 06:01 34.87935 33.60286 8927 ft 295 kts 110°
2026-04-19 06:01 34.87474 33.62731 8551 ft 296 kts 94°
2026-04-19 06:01 34.87635 33.65222 8198 ft 296 kts 80°
2026-04-19 06:01 34.88040 33.67663 7849 ft 295 kts 78°
2026-04-19 06:02 34.88470 33.70087 7499 ft 294 kts 79°
2026-04-19 06:02 34.88896 33.72519 7143 ft 293 kts 79°
2026-04-19 06:02 34.89308 33.74946 6749 ft 290 kts 79°
2026-04-19 06:02 34.89703 33.77316 6314 ft 288 kts 79°
2026-04-19 06:03 34.90096 33.79699 5815 ft 287 kts 80°
2026-04-19 06:03 34.90484 33.82066 5307 ft 287 kts 79°
2026-04-19 06:03 34.91188 33.84327 4829 ft 287 kts 54°
2026-04-19 06:03 34.92731 33.85812 4305 ft 285 kts 19°
2026-04-19 06:04 34.94645 33.86010 3928 ft 273 kts 346°
2026-04-19 06:04 34.96439 33.85500 3714 ft 266 kts 349°
2026-04-19 06:04 34.98286 33.85674 3542 ft 266 kts 18°
2026-04-19 06:04 34.99803 33.86854 3404 ft 257 kts 49°
2026-04-19 06:05 35.00637 33.88717 3270 ft 246 kts 80°
2026-04-19 06:05 35.00733 33.90760 3165 ft 239 kts 93°
2026-04-19 06:05 35.00554 33.92738 3011 ft 232 kts 116°
2026-04-19 06:05 34.99575 33.94137 2880 ft 206 kts 157°
2026-04-19 06:06 34.98251 33.94308 2803 ft 187 kts 194°
2026-04-19 06:06 34.97076 33.93771 2678 ft 180 kts 210°
2026-04-19 06:06 34.96065 33.92878 2516 ft 176 kts 224°
2026-04-19 06:06 34.95327 33.91713 2335 ft 172 kts 240°
2026-04-19 06:07 34.94947 33.90351 2220 ft 171 kts 259°
2026-04-19 06:07 34.94981 33.88895 2126 ft 173 kts 276°
2026-04-19 06:07 34.95190 33.87444 2047 ft 173 kts 278°
2026-04-19 06:07 34.95409 33.86001 1971 ft 173 kts 278°
2026-04-19 06:08 34.95622 33.84555 1900 ft 173 kts 277°
2026-04-19 06:08 34.95838 33.83122 1830 ft 174 kts 281°
2026-04-19 06:08 34.96199 33.81691 1759 ft 176 kts 286°
2026-04-19 06:08 34.96592 33.80291 1714 ft 177 kts 287°
2026-04-19 06:09 34.96994 33.78877 1686 ft 177 kts 287°
2026-04-19 06:09 34.97396 33.77458 1668 ft 176 kts 287°
2026-04-19 06:09 34.97712 33.76022 1598 ft 171 kts 269°
2026-04-19 06:09 34.97367 33.74782 1512 ft 149 kts 235°
2026-04-19 06:10 34.96706 33.73810 1524 ft 146 kts 228°
2026-04-19 06:10 34.96002 33.72918 1508 ft 145 kts 226°
2026-04-19 06:10 34.95289 33.72047 1507 ft 145 kts 225°
2026-04-19 06:10 34.94581 33.71188 1510 ft 145 kts 225°
2026-04-19 06:11 34.93863 33.70316 1447 ft 145 kts 225°
2026-04-19 06:11 34.93148 33.69445 1270 ft 144 kts 226°
2026-04-19 06:11 34.92439 33.68580 1096 ft 144 kts 226°
2026-04-19 06:12 34.91021 33.66848 754 ft 143 kts 225°
2026-04-19 06:12 34.90318 33.65990 580 ft 143 kts 225°
2026-04-19 06:12 34.89620 33.65137 407 ft 142 kts 225°
2026-04-19 06:12 34.88929 33.64277 233 ft 143 kts 225°
2026-04-19 06:13 34.88222 33.63425 54 ft 143 kts 225°
2026-04-19 06:13 34.87550 33.62608 14 ft 118 kts 225°
2026-04-19 06:13 34.87083 33.62037 10 ft 67 kts 225°
2026-04-19 06:13 34.86785 33.61673 14 ft 58 kts 225°
2026-04-19 06:14 34.86646 33.61503 18 ft 12 kts 225°
2026-04-19 06:14 34.86609 33.61425 19 ft 10 kts 283°
2026-04-19 06:14 34.86653 33.61359 21 ft 9 kts 315°
2026-04-19 06:14 34.86696 33.61307 22 ft 8 kts 316°
2026-04-19 06:15 34.86746 33.61287 23 ft 7 kts
2026-04-19 06:15 34.86795 33.61329 23 ft 10 kts 45°
2026-04-19 06:15 34.86855 33.61387 21 ft 11 kts
2026-04-19 06:15 34.86921 33.61338 22 ft 11 kts 315°
2026-04-19 06:16 34.86975 33.61272 24 ft 10 kts 315°
2026-04-19 06:16 34.87023 33.61215 26 ft 9 kts 315°
2026-04-19 06:16 34.87040 33.61172 27 ft 4 kts 252°
2026-04-19 06:16 34.87017 33.61138 27 ft 5 kts 224°
2026-04-19 06:17 34.86996 33.61114 28 ft 1 kts 224°
2026-04-19 06:17 34.86992 33.61109 28 ft 0 kts 224°